Volver al catálogo

FENGYUN 1C DEB

ActivoPO
NORAD 37687·DEBRIS·🇨🇳 China

Lanzado May 10, 1999 desde Taiyuan Satellite Launch Center

Loading…

Próximos Pases (próximas 24 horas)

TLE

ActualizadoSource: Space-Track

Época: Sep 13, 2026, 06:31 UTC

1 37687U 99025ELC 26256.27155272  .00004163  00000-0  23112-2 0  9993
2 37687  98.1895 263.0558 0326010 320.0414 100.3357 13.87996950870593

Sigue FENGYUN 1C DEB en tiempo real con AllMySat

Download on the App Store